Location: Bratsk-Energetik
(56.3300°N, 101.7600°E)
Time: 09:04:45
(UTC+08:00)

ISS - Visible Passes

Search period start: 25 May 2017 00:00
Search period end: 04 June 2017 00:00
Orbit: 402 x 409 km, 51.6° (Epoch: 25 May)

Date Brightness Start Highest point End Pass type
(mag) Time Alt. Az. Time Alt. Az. Time Alt. Az.
25 May -3.3 00:55:35 10° WSW 00:58:38 35° S 01:01:40 10° ESE visible
25 May -3.0 02:31:47 10° WSW 02:34:42 29° SSW 02:37:36 10° SE visible
25 May -2.1 22:28:55 10° S 22:30:52 15° SSE 22:32:51 10° ESE visible
26 May -3.1 00:03:45 10° SW 00:06:44 32° S 00:09:42 10° ESE visible
26 May -3.2 01:39:47 10° WSW 01:42:48 33° S 01:45:49 10° ESE visible
26 May -2.2 03:16:30 10° WSW 03:18:42 17° SSW 03:20:54 10° SSE visible
26 May -2.8 23:11:59 10° SW 23:14:50 27° SSE 23:17:41 10° ESE visible
27 May -3.3 00:47:49 10° WSW 00:50:53 36° S 00:53:56 10° ESE visible
27 May -2.6 02:24:15 10° WSW 02:26:54 22° SSW 02:29:29 10° SSE visible
27 May -3.2 23:55:53 10° WSW 23:58:58 36° S 00:02:01 10° ESE visible
28 May -2.9 01:32:09 10° WSW 01:35:00 27° SSW 01:37:23 13° SE visible
28 May -3.1 23:04:00 10° WSW 23:07:01 33° S 23:10:02 10° ESE visible
29 May -3.1 00:40:06 10° WSW 00:43:05 32° S 00:45:38 13° SE visible
29 May -1.9 02:16:58 10° WSW 02:18:13 14° SW 02:18:13 14° SW visible
29 May -3.2 23:48:05 10° WSW 23:51:08 35° S 23:54:11 10° ESE visible
30 May -2.4 01:24:36 10° WSW 01:27:06 20° SSW 01:27:15 20° SSW visible
30 May -3.2 22:56:06 10° WSW 22:59:10 36° S 23:02:14 10° ESE visible
31 May -2.7 00:32:25 10° WSW 00:35:12 25° SSW 00:36:31 19° SSE visible
31 May -2.9 23:40:18 10° WSW 23:43:15 30° SSW 23:45:52 12° SE visible
01 Jun -1.7 01:17:23 10° WSW 01:18:31 13° SW 01:18:31 13° SW visible
01 Jun -3.0 22:48:14 10° WSW 22:51:16 34° S 22:54:18 10° ESE visible
02 Jun -2.2 00:24:51 10° WSW 00:27:11 18° SSW 00:27:57 17° S visible
02 Jun -2.4 23:32:34 10° WSW 23:35:16 23° SSW 23:37:25 13° SSE visible
